Mt Hood
Mt. Hood Meadows Ski Area
Latest observation 09/03 17:00 PDT
| Time (PDT) | Temp °F 6540' | Temp °F 5380' | RH % 6540' | RH % 5380' | Min mph 6540' | Spd mph 6540' | Gust mph 6540' | Dir ° 6540' | Pcp1 in 5380' | PcpSum in 5380' | 24Sno in 5380' | SnoHt in 5380' | Pres millibar 5380' |
|---|---|---|---|---|---|---|---|---|---|---|---|---|---|
| 09/03 17:00 | 37 | 43 | 78 | 73 | 0 | 7 | 17 | 243 | 0.00 | 0.98 | -150.1 | 10.1 | 1011 |
| 09/03 16:00 | 37 | 44 | 78 | 71 | 0 | 7 | 14 | 243 | 0.00 | 0.98 | -148.5 | 10.3 | 1011 |
| 09/03 15:00 | 36 | 43 | 87 | 79 | 0 | 6 | 12 | 233 | 0.00 | 0.98 | -149.2 | 10.1 | 1011 |
| 09/03 14:00 | 35 | 42 | 100 | 83 | 0 | 6 | 16 | 225 | 0.00 | 0.98 | -149.9 | 9.7 | 1011 |
| 09/03 13:00 | 35 | 41 | 95 | 82 | 4 | 12 | 20 | 223 | 0.00 | 0.98 | -149.6 | 8.9 | 1011 |
| 09/03 12:00 | 34 | 40 | 100 | 87 | 5 | 12 | 22 | 233 | 0.00 | 0.98 | -149.0 | 9.2 | 1011 |
| 09/03 11:00 | 33 | 39 | 100 | 86 | 6 | 15 | 28 | 238 | 0.01 | 0.98 | -150.0 | 9.0 | 1011 |
| 09/03 10:00 | 32 | 39 | 100 | 87 | 4 | 14 | 24 | 242 | 0.00 | 0.97 | -150.1 | 8.9 | 1011 |
| 09/03 09:00 | 31 | 37 | 100 | 93 | 7 | 16 | 27 | 230 | 0.00 | 0.97 | -150.6 | 11.7 | 1011 |
| 09/03 08:00 | 31 | 37 | 100 | 92 | 4 | 13 | 25 | 234 | 0.01 | 0.97 | -150.7 | 9.3 | 1011 |
| 09/03 07:00 | 31 | 36 | 100 | 92 | 5 | 12 | 23 | 235 | 0.02 | 0.96 | -150.7 | 10.0 | 1010 |
| 09/03 06:00 | 31 | 36 | 100 | 92 | 7 | 16 | 25 | 246 | 0.03 | 0.94 | -150.3 | -4.2 | 1010 |
| 09/03 05:00 | 31 | 36 | 100 | 91 | 8 | 17 | 28 | 253 | 0.05 | 0.91 | -152.1 | -2.2 | 1010 |
| 09/03 04:00 | 31 | 37 | 100 | 92 | 7 | 17 | 36 | 252 | 0.02 | 0.86 | -149.7 | 10.1 | 1010 |
| 09/03 03:00 | 31 | 37 | 100 | 90 | 7 | 19 | 40 | 249 | 0.01 | 0.84 | -149.9 | 10.0 | 1010 |
| 09/03 02:00 | 31 | 37 | 100 | 92 | 9 | 19 | 34 | 251 | 0.02 | 0.83 | -150.5 | 10.0 | 1010 |
| 09/03 01:00 | 31 | 37 | 100 | 90 | 6 | 18 | 33 | 252 | 0.00 | 0.81 | -150.4 | 11.0 | 1010 |
| 09/03 00:00 | 32 | 37 | 86 | 85 | 15 | 26 | 42 | 260 | 0.00 | 0.81 | -151.6 | 10.2 | 1009 |
| 09/02 23:00 | 32 | 37 | 99 | 86 | 11 | 24 | 54 | 251 | 0.00 | 0.81 | -151.0 | 12.7 | 1009 |
| 09/02 22:00 | 33 | 39 | 100 | 89 | 11 | 24 | 44 | 252 | 0.00 | 0.81 | -151.0 | 11.8 | 1010 |
| 09/02 21:00 | 35 | 40 | 99 | 92 | 10 | 22 | 38 | 250 | 0.02 | 0.81 | -150.8 | 9.5 | 1009 |
| 09/02 20:00 | 35 | 41 | 99 | 91 | 5 | 19 | 34 | 258 | 0.16 | 0.79 | -150.8 | 10.2 | 1009 |
| 09/02 19:00 | 38 | 43 | 98 | 95 | 10 | 20 | 32 | 224 | 0.02 | 0.63 | -150.7 | -4.2 | 1009 |
| 09/02 18:00 | 38 | 43 | 98 | 95 | 13 | 24 | 44 | 225 | 0.09 | 0.61 | -151.2 | 148.2 | 1009 |
| 09/02 17:00 | 38 | 43 | 98 | 95 | 8 | 25 | 42 | 229 | 0.09 | 0.52 | -151.7 | 10.1 | 1009 |
| 09/02 16:00 | 38 | 43 | 98 | 94 | 11 | 26 | 44 | 225 | 0.08 | 0.43 | -151.8 | 7.8 | 1009 |
| 09/02 15:00 | 37 | 43 | 98 | 95 | 14 | 25 | 35 | 222 | 0.04 | 0.35 | -151.5 | 10.2 | 1009 |
| 09/02 14:00 | 37 | 42 | 98 | 94 | 12 | 20 | 31 | 226 | 0.08 | 0.31 | -151.6 | 9.4 | 1009 |
| 09/02 13:00 | 36 | 42 | 98 | 92 | 9 | 18 | 32 | 225 | 0.09 | 0.23 | -151.4 | 11.5 | 1010 |
| 09/02 12:00 | 36 | 43 | 89 | 88 | 8 | 16 | 29 | 227 | 0.07 | 0.14 | -150.1 | 11.0 | 1010 |
| 09/02 11:00 | 38 | 45 | 81 | 75 | 11 | 20 | 32 | 225 | 0.00 | 0.07 | -151.0 | 10.9 | 1010 |
| 09/02 10:00 | 38 | 46 | 81 | 73 | 10 | 20 | 36 | 226 | 0.00 | 0.07 | -151.6 | -2.7 | 1010 |
| 09/02 09:00 | 37 | 43 | 89 | 81 | 7 | 18 | 27 | 226 | 0.00 | 0.07 | -150.5 | 10.9 | 1010 |
| 09/02 08:00 | 37 | 43 | 92 | 85 | 6 | 16 | 28 | 233 | 0.00 | 0.07 | -150.3 | 10.5 | 1011 |
| 09/02 07:00 | 37 | 43 | 82 | 79 | 7 | 15 | 27 | 237 | 0.00 | 0.07 | -150.1 | 8.9 | 1011 |
| 09/02 06:00 | 37 | 43 | 87 | 80 | 8 | 17 | 29 | 239 | 0.00 | 0.07 | -150.8 | 12.1 | 1011 |
| 09/02 05:00 | 38 | 43 | 75 | 76 | 11 | 23 | 38 | 253 | 0.00 | 0.07 | -150.4 | 10.4 | 1011 |
| 09/02 04:00 | 38 | 43 | 75 | 74 | 13 | 22 | 35 | 256 | 0.00 | 0.07 | -151.2 | -2.4 | 1011 |
| 09/02 03:00 | 37 | 43 | 81 | 76 | 10 | 22 | 36 | 253 | 0.00 | 0.07 | -151.7 | 11.1 | 1012 |
| 09/02 02:00 | 38 | 44 | 79 | 78 | 17 | 31 | 41 | 264 | 0.00 | 0.07 | -152.0 | -2.1 | 1012 |
| 09/02 01:00 | 40 | 44 | 70 | 73 | 17 | 32 | 46 | 264 | 0.00 | 0.07 | -151.1 | 10.5 | 1012 |
| 09/02 00:00 | 37 | 43 | 84 | 81 | 19 | 31 | 42 | 264 | 0.00 | 0.07 | -151.6 | 11.0 | 1013 |
| 09/01 23:00 | 43 | 45 | 48 | 80 | 15 | 28 | 39 | 264 | 0.00 | 0.07 | -151.5 | 10.6 | 1013 |
| 09/01 22:00 | 46 | 48 | 42 | 60 | 14 | 26 | 42 | 257 | 0.00 | 0.07 | -151.4 | 10.4 | 1012 |
| 09/01 21:00 | 46 | 50 | 48 | 49 | 11 | 26 | 43 | 251 | 0.00 | 0.07 | -150.5 | 12.2 | 1012 |
| 09/01 20:00 | 46 | 51 | 51 | 53 | 10 | 25 | 43 | 251 | 0.00 | 0.07 | -151.7 | 5.7 | 1012 |
| 09/01 19:00 | 46 | 51 | 52 | 53 | 11 | 22 | 45 | 246 | 0.00 | 0.07 | -151.1 | 11.9 | 1012 |
| 09/01 18:00 | 48 | 53 | 40 | 42 | 8 | 20 | 36 | 247 | 0.00 | 0.07 | -149.9 | 13.4 | 1013 |
| 09/01 17:00 | 50 | 55 | 45 | 48 | 9 | 20 | 34 | 249 | 0.00 | 0.07 | -150.3 | 10.8 | 1013 |
| 09/01 16:00 | 51 | 57 | 46 | 48 | 7 | 18 | 32 | 252 | 0.00 | 0.07 | -149.7 | 9.6 | 1013 |
| 09/01 15:00 | 50 | 57 | 46 | 49 | 7 | 16 | 28 | 244 | 0.00 | 0.07 | -149.7 | 10.2 | 1013 |
| 09/01 14:00 | 55 | 60 | 45 | 46 | 5 | 14 | 26 | 240 | 0.00 | 0.07 | -148.5 | 10.2 | 1013 |
| 09/01 13:00 | 54 | 61 | 31 | 31 | 5 | 13 | 25 | 249 | 0.00 | 0.07 | -148.7 | 11.5 | 1013 |
| 09/01 12:00 | 53 | 59 | 41 | 42 | 4 | 12 | 23 | 236 | 0.00 | 0.07 | -150.7 | 2.3 | 1014 |
| 09/01 11:00 | 55 | 58 | 42 | 51 | 0 | 4 | 15 | 212 | 0.00 | 0.07 | -150.1 | 9.8 | 1013 |
| 09/01 10:00 | 54 | 55 | 40 | 54 | 0 | 2 | 7 | 205 | 0.00 | 0.07 | -150.8 | 10.7 | 1013 |
| 09/01 09:00 | 55 | 56 | 31 | 49 | 0 | 3 | 7 | 244 | 0.00 | 0.07 | -150.6 | 13.2 | 1013 |
| 09/01 08:00 | 53 | 52 | 26 | 41 | 0 | 0 | 4 | 254 | 0.00 | 0.07 | -150.0 | 13.4 | 1013 |
| 09/01 07:00 | 51 | 50 | 26 | 40 | 0 | 0 | 1 | 268 | 0.00 | 0.07 | -151.3 | 13.6 | 1013 |
| 09/01 06:00 | 52 | 51 | 24 | 35 | 0 | 0 | 0 | 282 | 0.00 | 0.07 | -149.7 | 13.7 | 1012 |
| 09/01 05:00 | 52 | 52 | 21 | 33 | 0 | 1 | 2 | 272 | 0.00 | 0.07 | -150.8 | 13.9 | 1012 |
| 09/01 04:00 | 54 | 52 | 21 | 32 | 0 | 0 | 0 | 312 | 0.00 | 0.07 | -149.9 | 13.8 | 1013 |
| 09/01 03:00 | 54 | 52 | 21 | 32 | 0 | 0 | 0 | 340 | 0.00 | 0.07 | -149.5 | 13.3 | 1013 |
| 09/01 02:00 | 53 | 52 | 24 | 37 | 0 | 5 | 9 | 49 | 0.00 | 0.07 | -150.9 | 13.3 | 1014 |
| 09/01 01:00 | 55 | 53 | 21 | 38 | 0 | 4 | 13 | 30 | 0.00 | 0.07 | -150.5 | 13.0 | 1014 |
| 09/01 00:00 | 53 | 52 | 29 | 45 | 0 | 2 | 7 | 44 | 0.00 | 0.07 | -151.5 | 12.9 | 1014 |
| 08/31 23:00 | 53 | 53 | 41 | 51 | 0 | 0 | 4 | 44 | 0.00 | 0.07 | -150.6 | 12.1 | 1014 |
| 08/31 22:00 | 54 | 53 | 38 | 50 | 0 | 1 | 6 | 28 | 0.00 | 0.07 | -150.7 | 11.8 | 1015 |
| 08/31 21:00 | 55 | 54 | 39 | 50 | 0 | 0 | 5 | 291 | 0.00 | 0.07 | -150.7 | 11.7 | 1015 |
| 08/31 20:00 | 55 | 57 | 38 | 47 | 0 | 0 | 3 | 229 | 0.00 | 0.07 | -150.7 | 10.5 | 1015 |
| 08/31 19:00 | 57 | 60 | 35 | 41 | 0 | 0 | 2 | 183 | 0.00 | 0.07 | -150.6 | 10.9 | 1015 |
| 08/31 18:00 | 62 | 66 | 30 | 30 | 0 | 1 | 7 | 154 | 0.00 | 0.07 | -148.7 | 12.1 | 1015 |
| 08/31 17:00 | 63 | 67 | 27 | 27 | 0 | 4 | 15 | 149 | 0.00 | 0.07 | -147.0 | 12.0 | 1015 |
| 08/31 16:00 | 65 | 68 | 23 | 24 | 0 | 5 | 12 | 135 | 0.00 | 0.07 | -143.9 | -1.8 | 1015 |
| 08/31 15:00 | 66 | 69 | 23 | 22 | 0 | 4 | 11 | 163 | 0.00 | 0.07 | -142.9 | 13.4 | 1016 |
| 08/31 14:00 | 64 | 68 | 23 | 22 | 0 | 4 | 10 | 159 | 0.00 | 0.07 | -142.1 | 13.4 | 1016 |
| 08/31 13:00 | 62 | 67 | 22 | 20 | 0 | 2 | 10 | 176 | 0.00 | 0.07 | -145.7 | 13.0 | 1016 |
| 08/31 12:00 | 59 | 63 | 25 | 25 | 0 | 3 | 8 | 181 | 0.00 | 0.07 | -149.5 | -2.3 | 1017 |
| 08/31 11:00 | 57 | 62 | 24 | 26 | 0 | 3 | 9 | 185 | 0.00 | 0.07 | -151.0 | 12.4 | 1017 |
| 08/31 10:00 | 55 | 61 | 25 | 27 | 0 | 2 | 10 | 181 | 0.00 | 0.07 | -151.8 | 13.2 | 1016 |
| 08/31 09:00 | 53 | 59 | 28 | 28 | 0 | 1 | 10 | 209 | 0.00 | 0.07 | -150.7 | 14.0 | 1017 |
| 08/31 08:00 | 51 | 55 | 31 | 41 | 0 | 3 | 8 | 222 | 0.00 | 0.07 | -150.6 | 11.3 | 1016 |
| 08/31 07:00 | 50 | 48 | 37 | 53 | 0 | 3 | 12 | 236 | 0.00 | 0.07 | -149.9 | 13.3 | 1016 |
| 08/31 06:00 | 49 | 48 | 39 | 52 | 0 | 3 | 11 | 246 | 0.00 | 0.07 | -149.8 | 12.8 | 1016 |
| 08/31 05:00 | 49 | 48 | 39 | 55 | 0 | 1 | 6 | 257 | 0.00 | 0.07 | -149.7 | 13.5 | 1016 |
| 08/31 04:00 | 49 | 48 | 41 | 55 | 0 | 0 | 0 | 244 | 0.00 | 0.07 | -150.8 | 13.2 | 1017 |
| 08/31 03:00 | 49 | 48 | 43 | 58 | 0 | 0 | 2 | 267 | 0.00 | 0.07 | -149.6 | 12.6 | 1017 |
| 08/31 02:00 | 48 | 49 | 51 | 60 | 0 | 0 | 2 | 224 | 0.00 | 0.07 | -150.1 | 12.7 | 1017 |
| 08/31 01:00 | 50 | 49 | 46 | 59 | 0 | 0 | 0 | 97 | 0.00 | 0.07 | -150.2 | 12.1 | 1018 |
| 08/31 00:00 | 52 | 50 | 42 | 56 | 0 | 0 | 0 | 329 | 0.00 | 0.07 | -150.5 | 12.7 | 1018 |
| 08/30 23:00 | 51 | 50 | 46 | 58 | 0 | 0 | 0 | 121 | 0.00 | 0.07 | -149.9 | -3.0 | 1018 |
| 08/30 22:00 | 51 | 50 | 47 | 60 | 0 | 0 | 4 | 132 | 0.00 | 0.07 | -149.2 | 12.1 | 1018 |
| 08/30 21:00 | 50 | 50 | 48 | 59 | 0 | 0 | 5 | 212 | 0.00 | 0.07 | -149.6 | 12.5 | 1019 |
| 08/30 20:00 | 50 | 50 | 48 | 64 | 0 | 0 | 5 | 240 | 0.00 | 0.07 | -150.9 | 11.4 | 1018 |
| 08/30 19:00 | 50 | 53 | 54 | 60 | 0 | 0 | 0 | 216 | 0.00 | 0.07 | -150.6 | 12.5 | 1019 |
| 08/30 18:00 | 54 | 57 | 47 | 48 | 0 | 0 | 2 | 205 | 0.00 | 0.07 | -148.8 | 12.7 | 1019 |
| 08/30 17:00 | 56 | 59 | 44 | 45 | 0 | 2 | 8 | 154 | 0.00 | 0.07 | -149.1 | 12.9 | 1019 |
| 08/30 16:00 | 56 | 59 | 45 | 46 | 0 | 3 | 10 | 151 | 0.00 | 0.07 | -149.7 | 12.8 | 1019 |
| 08/30 15:00 | 57 | 60 | 43 | 43 | 0 | 5 | 16 | 136 | 0.00 | 0.07 | -148.3 | 4.8 | 1020 |
| 08/30 14:00 | 55 | 58 | 44 | 44 | 0 | 3 | 11 | 166 | 0.00 | 0.07 | -146.3 | 12.3 | 1020 |
| 08/30 13:00 | 53 | 58 | 48 | 45 | 0 | 4 | 9 | 155 | 0.00 | 0.07 | -148.5 | 12.3 | 1020 |
| 08/30 12:00 | 52 | 55 | 52 | 50 | 0 | 2 | 10 | 159 | 0.00 | 0.07 | -149.7 | 11.3 | 1020 |
| 08/30 11:00 | 48 | 53 | 47 | 49 | 0 | 1 | 7 | 153 | 0.00 | 0.07 | -149.5 | 12.8 | 1019 |
| 08/30 10:00 | 46 | 50 | 47 | 48 | 0 | 1 | 6 | 134 | 0.00 | 0.07 | -151.1 | 12.9 | 1019 |
| 08/30 09:00 | 44 | 48 | 40 | 49 | 0 | 0 | 1 | 180 | 0.00 | 0.07 | -150.6 | 13.3 | 1019 |
| 08/30 08:00 | 42 | 43 | 33 | 56 | 0 | 2 | 7 | 236 | 0.00 | 0.07 | -150.2 | 13.3 | 1019 |
| 08/30 07:00 | 39 | 38 | 39 | 60 | 0 | 0 | 3 | 216 | 0.00 | 0.07 | -150.6 | 12.4 | 1018 |
| 08/30 06:00 | 39 | 37 | 35 | 59 | 0 | 1 | 5 | 266 | 0.00 | 0.07 | -149.8 | 13.2 | 1018 |
| 08/30 05:00 | 38 | 37 | 37 | 61 | 0 | 1 | 6 | 246 | 0.00 | 0.07 | -151.3 | 13.2 | 1018 |
| 08/30 04:00 | 38 | 36 | 39 | 64 | 0 | 0 | 2 | 318 | 0.00 | 0.07 | -150.4 | 12.1 | 1018 |
| 08/30 03:00 | 39 | 37 | 37 | 64 | 0 | 0 | 3 | 337 | 0.00 | 0.07 | -151.4 | 13.8 | 1018 |
| 08/30 02:00 | 37 | 37 | 49 | 67 | 0 | 0 | 5 | 8 | 0.00 | 0.07 | -151.6 | 13.4 | 1018 |
| 08/30 01:00 | 38 | 36 | 46 | 72 | 0 | 1 | 6 | 233 | 0.00 | 0.07 | -150.1 | 12.9 | 1018 |
| 08/30 00:00 | 39 | 37 | 42 | 69 | 0 | 2 | 15 | 113 | 0.00 | 0.07 | -149.1 | 12.4 | 1018 |
| 08/29 23:00 | 44 | 38 | 28 | 71 | 0 | 5 | 15 | 327 | 0.00 | 0.07 | -150.7 | 12.7 | 1018 |
| 08/29 22:00 | 37 | 40 | 67 | 74 | 0 | 2 | 8 | 6 | 0.00 | 0.07 | -150.3 | 12.8 | 1018 |
| 08/29 21:00 | 36 | 40 | 82 | 82 | 0 | 2 | 7 | 49 | 0.00 | 0.07 | -150.7 | 12.8 | 1019 |
| 08/29 20:00 | 38 | 44 | 70 | 69 | 3 | 16 | 33 | 308 | 0.00 | 0.07 | -150.3 | 9.9 | 1018 |
| 08/29 19:00 | 38 | 44 | 74 | 70 | 17 | 27 | 37 | 276 | 0.00 | 0.07 | -150.3 | 13.5 | 1018 |
| 08/29 18:00 | 38 | 45 | 69 | 67 | 12 | 25 | 37 | 283 | 0.00 | 0.07 | -150.1 | 13.3 | 1018 |
| 08/29 17:00 | 38 | 45 | 71 | 69 | 17 | 26 | 35 | 277 | 0.00 | 0.07 | -149.6 | 12.9 | 1018 |
| 08/29 16:00 | 38 | 45 | 73 | 67 | 12 | 26 | 39 | 281 | 0.00 | 0.07 | -149.3 | 12.4 | 1019 |
| 08/29 15:00 | 40 | 46 | 59 | 65 | 8 | 26 | 44 | 285 | 0.00 | 0.07 | -150.3 | 12.2 | 1018 |
| 08/29 14:00 | 38 | 46 | 69 | 67 | 8 | 26 | 44 | 282 | 0.00 | 0.07 | -149.6 | 13.2 | 1018 |
| 08/29 13:00 | 39 | 45 | 58 | 63 | 9 | 24 | 40 | 289 | 0.01 | 0.07 | -150.6 | 12.6 | 1018 |
| 08/29 12:00 | 38 | 44 | 67 | 67 | 6 | 24 | 37 | 299 | 0.00 | 0.06 | -150.6 | -1.4 | 1018 |
| 08/29 11:00 | 34 | 41 | 86 | 82 | 13 | 25 | 40 | 292 | 0.00 | 0.06 | -151.9 | 10.6 | 1017 |
| 08/29 10:00 | 34 | 41 | 81 | 75 | 16 | 32 | 47 | 278 | 0.00 | 0.06 | -151.8 | 13.2 | 1017 |
| 08/29 09:00 | 34 | 41 | 97 | 86 | 12 | 26 | 43 | 267 | 0.03 | 0.06 | -151.7 | 12.2 | 1016 |
| 08/29 08:00 | 35 | 40 | 84 | 90 | 9 | 22 | 34 | 264 | 0.03 | 0.03 | -151.0 | 9.7 | 1016 |
| 08/29 07:00 | 35 | 40 | 83 | 87 | 12 | 25 | 43 | 272 | 0.00 | 0.00 | -150.8 | 10.8 | 1016 |
| 08/29 06:00 | 37 | 41 | 67 | 72 | 17 | 30 | 43 | 277 | 0.00 | 0.00 | -152.2 | 3.3 | 1016 |
| 08/29 05:00 | 40 | 41 | 33 | 66 | 17 | 31 | 44 | 271 | 0.00 | 0.00 | -149.9 | -1.0 | 1016 |
| 08/29 04:00 | 38 | 43 | 70 | 72 | 16 | 30 | 44 | 267 | 0.00 | 0.00 | -150.4 | 13.8 | 1016 |
| 08/29 03:00 | 39 | 45 | 67 | 69 | 21 | 31 | 42 | 270 | 0.00 | 0.00 | -151.2 | 13.3 | 1016 |
| 08/29 02:00 | 41 | 45 | 52 | 71 | 13 | 29 | 45 | 277 | 0.00 | 0.00 | -151.4 | 13.1 | 1016 |
| 08/29 01:00 | 42 | 47 | 60 | 70 | 18 | 33 | 44 | 276 | 0.00 | 0.00 | -151.5 | 13.1 | 1016 |
| 08/29 00:00 | 45 | 47 | 38 | 67 | 12 | 25 | 40 | 278 | 0.00 | 0.00 | -149.9 | 13.2 | 1016 |
| 08/28 23:00 | 48 | 51 | 20 | 49 | 8 | 20 | 35 | 280 | 0.00 | 0.00 | -149.9 | -2.2 | 1016 |
| 08/28 22:00 | 51 | 49 | 20 | 64 | 11 | 22 | 32 | 273 | 0.00 | 0.00 | -151.8 | 11.4 | 1016 |
| 08/28 21:00 | 52 | 52 | 19 | 42 | 13 | 24 | 32 | 268 | 0.00 | 0.00 | -150.5 | 11.8 | 1016 |
| 08/28 20:00 | 51 | 53 | 25 | 38 | 16 | 23 | 29 | 268 | 0.00 | 0.00 | -150.7 | 13.0 | 1017 |
| 08/28 19:00 | 52 | 55 | 23 | 32 | 4 | 18 | 30 | 259 | 0.00 | 0.00 | -151.1 | 13.4 | 1017 |
| 08/28 18:00 | 53 | 56 | 25 | 47 | 2 | 11 | 23 | 240 | 0.00 | 0.00 | -150.1 | 13.3 | 1017 |
| 08/28 17:00 | 54 | 58 | 41 | 48 | 5 | 11 | 23 | 240 | 0.00 | 0.00 | -149.3 | 13.3 | 1018 |
| 08/28 16:00 | 57 | 61 | 13 | 37 | 1 | 11 | 22 | 241 | 0.00 | 0.00 | -148.4 | 12.8 | 1018 |
| 08/28 15:00 | 56 | 62 | 31 | 43 | 3 | 12 | 21 | 224 | 0.00 | 0.00 | -148.4 | 11.9 | 1018 |
| 08/28 14:00 | 56 | 61 | 36 | 46 | 4 | 11 | 20 | 217 | 0.00 | 0.00 | -148.0 | 10.4 | 1019 |
| 08/28 13:00 | 56 | 62 | 33 | 40 | 1 | 7 | 16 | 212 | 0.00 | 0.00 | -148.3 | 12.3 | 1019 |
| 08/28 12:00 | 55 | 61 | 32 | 36 | 0 | 4 | 15 | 183 | 0.00 | 0.00 | -151.6 | 12.3 | 1019 |
| 08/28 11:00 | 53 | 57 | 52 | 60 | 0 | 3 | 10 | 145 | 0.00 | 0.00 | -151.8 | 10.4 | 1019 |
| 08/28 10:00 | 51 | 55 | 49 | 58 | 0 | 3 | 7 | 152 | 0.00 | 0.00 | -151.3 | 13.2 | 1019 |
| 08/28 09:00 | 49 | 55 | 42 | 43 | 0 | 0 | 2 | 124 | 0.00 | 0.00 | -152.9 | 13.1 | 1019 |
| 08/28 08:00 | 47 | 49 | 40 | 52 | 0 | 0 | 0 | 63 | 0.00 | 0.00 | -151.2 | 13.5 | 1018 |
| 08/28 07:00 | 46 | 44 | 35 | 48 | 0 | 0 | 3 | 355 | 0.00 | 0.00 | -150.3 | 13.8 | 1018 |
| 08/28 06:00 | 46 | 44 | 29 | 48 | 0 | 2 | 8 | 335 | 0.00 | 0.00 | -151.7 | 13.5 | 1018 |
| 08/28 05:00 | 45 | 44 | 32 | 44 | 0 | 2 | 7 | 347 | 0.00 | 0.00 | -149.2 | 13.3 | 1018 |
| 08/28 04:00 | 47 | 45 | 27 | 46 | 0 | 0 | 1 | 28 | 0.00 | 0.00 | -150.0 | 13.2 | 1018 |
| 08/28 03:00 | 48 | 45 | 23 | 44 | 0 | 4 | 10 | 17 | 0.00 | 0.00 | -150.6 | 13.6 | 1018 |
| 08/28 02:00 | 49 | 45 | 23 | 50 | 0 | 0 | 0 | 33 | 0.00 | 0.00 | -151.4 | 12.8 | 1018 |
| 08/28 01:00 | 48 | 46 | 25 | 48 | 0 | 5 | 10 | 12 | 0.00 | 0.00 | -150.9 | 13.2 | 1019 |
| 08/28 00:00 | 47 | 44 | 36 | 62 | 0 | 3 | 11 | 50 | 0.00 | 0.00 | -151.6 | 13.3 | 1019 |
| 08/27 23:00 | 47 | 45 | 40 | 82 | 0 | 3 | 12 | 107 | 0.00 | 0.00 | -150.6 | 8.7 | 1019 |
| 08/27 22:00 | 53 | 51 | 9 | 66 | 0 | 9 | 22 | 266 | 0.00 | 0.00 | -151.8 | 11.3 | 1019 |
| 08/27 21:00 | 53 | 50 | 12 | 66 | 0 | 7 | 22 | 262 | 0.00 | 0.00 | -151.5 | 12.6 | 1019 |
| 08/27 20:00 | 50 | 56 | 47 | 31 | 0 | 7 | 27 | 359 | 0.00 | 0.00 | -150.2 | 13.1 | 1019 |
| 08/27 19:00 | 53 | 57 | 35 | 32 | 0 | 11 | 24 | 286 | 0.00 | 0.00 | -151.2 | 5.3 | 1019 |
| 08/27 18:00 | 56 | 58 | 21 | 30 | 4 | 14 | 23 | 271 | 0.00 | 0.00 | -149.7 | 12.7 | 1019 |

